Beckley, WV

3:41 AM EST on February 25, 2018 (GMT -0500)
Raleigh County Memorial

Weather History for KBKW - February, 2013

Change the Weather History Date:

Tuesday, February 19, 2013

  Actual Average Record
Temperature  
Mean Temperature 37 °F 35 °F  
Max Temperature 45 °F 44 °F 72 °F (1939)
Min Temperature 28 °F 26 °F -5 °F (2015)
Degree Days  
Heating Degree Days 28 30  
Month to date heating degree days 617 599  
Since 1 July heating degree days 3533 3743  
Cooling Degree Days 0 0  
Month to date cooling degree days 0 0  
Year to date cooling degree days 0 0  
Moisture  
Dew Point 26 °F    
Average Humidity 64    
Maximum Humidity 85    
Minimum Humidity 43    
Precipitation  
Precipitation 0.13 in 0.10 in 1.15 in (1914)
Month to date precipitation 0.94 1.85  
Year to date precipitation 5.71 4.66  
Snow  
Snow 0.00 in 0.60 in 12.00 in (1960)
Month to date snowfall 9.4 11.8  
Since 1 September snowfall 51.8 45.7  
Snow Depth 0.00 in    
Sea Level Pressure  
Sea Level Pressure 29.90 in    
Wind  
Wind Speed 13 mph (SW)    
Max Wind Speed 29 mph    
Max Gust Speed 39 mph    
Visibility 9 miles    
Events Rain , Snow    
T = Trace of Precipitation, MM = Missing Value Source: NWS Daily Summary

Daily Weather History Graph

Daily Weather History Graph

Search for Another Location

Airport or City:

Trip Planner

Search our weather history database for the weather conditions in past years. The results will help you decide how hot, cold, wet, or windy it might be!

Date:

Astronomy

Feb. 19, 2013 Rise Set
Actual Time 7:08 AM EST 6:08 PM EST
Civil Twilight 6:42 AM EST 6:34 PM EST
Nautical Twilight 6:11 AM EST 7:05 PM EST
Astronomical Twilight 5:41 AM EST 7:35 PM EST
Moon 12:41 PM EST (2/19) 2:36 AM EST (2/19)
Length of Visible Light 11h 52m
Length of Day
10h 59m
Waxing Gibbous, 67% of the Moon is Illuminated
Feb 19
Waxing Gibbous
Feb 25
Full
Mar 4
Last Quarter
Mar 11
New
Mar 19
First Quarter

Hourly Weather History & Observations

Time (EST) Temp. Windchill Dew Point Humidity Pressure Visibility Wind Dir Wind Speed Gust Speed Precip Events Conditions
12:51 AM 39.0 °F 31.4 °F 21.9 °F 50% 29.97 in 10.0 mi SSE 12.7 mph 20.7 mph N/A   Mostly Cloudy
1:51 AM 39.9 °F 33.4 °F 21.9 °F 49% 29.95 in 10.0 mi South 10.4 mph 19.6 mph N/A   Mostly Cloudy
2:51 AM 39.9 °F 34.5 °F 21.9 °F 49% 29.91 in 10.0 mi SSE 8.1 mph 19.6 mph N/A   Mostly Cloudy
3:51 AM 39.9 °F 33.9 °F 21.9 °F 49% 29.92 in 10.0 mi South 9.2 mph - N/A   Overcast
4:37 AM 37.4 °F 27.5 °F 30.2 °F 75% 29.91 in 6.0 mi SW 18.4 mph 35.7 mph 0.00 in Snow Light Snow
4:51 AM 35.1 °F 25.5 °F 30.9 °F 85% 29.94 in 4.0 mi SSW 15.0 mph 25.3 mph 0.01 in Snow Light Snow
4:59 AM 33.8 °F 26.4 °F 30.2 °F 87% 29.91 in 3.0 mi South 9.2 mph - 0.02 in Snow Light Snow
5:51 AM 35.1 °F 27.9 °F 32.0 °F 89% 29.92 in 9.0 mi South 9.2 mph - 0.04 in Rain Light Rain
6:07 AM 35.6 °F 28.6 °F 32.0 °F 87% 29.88 in 9.0 mi South 9.2 mph - 0.00 in Snow Light Snow
6:26 AM 35.6 °F 29.9 °F 32.0 °F 87% 29.88 in 7.0 mi South 6.9 mph - 0.00 in Snow Light Snow
6:51 AM 34.0 °F 28.0 °F 32.0 °F 92% 29.91 in 5.0 mi South 6.9 mph - 0.02 in Snow Light Snow
7:32 AM 35.6 °F 28.0 °F 32.0 °F 87% 29.84 in 10.0 mi SSE 10.4 mph - 0.01 in   Overcast
7:51 AM 36.0 °F 30.3 °F 32.0 °F 86% 29.88 in 10.0 mi South 6.9 mph - 0.01 in Rain Light Rain
8:35 AM 35.6 °F 30.7 °F 33.8 °F 93% 29.83 in 10.0 mi SSE 5.8 mph - 0.00 in Rain Light Rain
8:51 AM 37.0 °F 31.6 °F 33.1 °F 86% 29.88 in 8.0 mi South 6.9 mph - 0.00 in Rain Light Rain
9:51 AM 37.9 °F 32.7 °F 34.0 °F 86% 29.87 in 10.0 mi SW 6.9 mph - 0.01 in Rain Light Rain
10:51 AM 39.9 °F 31.8 °F 35.1 °F 83% 29.86 in 8.0 mi WSW 15.0 mph 20.7 mph 0.01 in Rain Light Rain
11:51 AM 41.0 °F 33.1 °F 36.0 °F 82% 29.85 in 10.0 mi SW 15.0 mph 23.0 mph 0.00 in Rain Light Rain
1:37 PM 39.2 °F 30.5 °F 35.6 °F 87% 29.78 in 10.0 mi WSW 16.1 mph 23.0 mph 0.03 in   Mostly Cloudy
1:51 PM 43.0 °F 37.2 °F 35.1 °F 74% 29.81 in 10.0 mi West 10.4 mph 20.7 mph 0.03 in   Mostly Cloudy
2:51 PM 43.0 °F 34.8 °F 26.1 °F 51% 29.81 in 10.0 mi West 18.4 mph 29.9 mph N/A   Mostly Cloudy
3:51 PM 42.1 °F 33.1 °F 21.0 °F 43% 29.83 in 10.0 mi West 20.7 mph 34.5 mph N/A   Scattered Clouds
4:51 PM 39.9 °F 31.8 °F 19.9 °F 45% 29.86 in 10.0 mi WNW 15.0 mph 24.2 mph N/A   Mostly Cloudy
5:51 PM 37.9 °F 30.5 °F 19.0 °F 47% 29.89 in 10.0 mi West 11.5 mph 19.6 mph 0.00 in   Mostly Cloudy
7:51 PM 34.0 °F 24.2 °F 14.0 °F 44% 29.97 in 10.0 mi West 15.0 mph 31.1 mph N/A   Clear
8:51 PM 32.0 °F 21.6 °F 14.0 °F 48% 29.99 in 10.0 mi West 15.0 mph 27.6 mph N/A   Clear
9:51 PM 30.0 °F 19.1 °F 14.0 °F 51% 30.00 in 10.0 mi West 15.0 mph 25.3 mph N/A   Partly Cloudy
10:51 PM 28.9 °F 16.9 °F 14.0 °F 54% 30.01 in 10.0 mi WNW 17.3 mph 27.6 mph N/A   Scattered Clouds
11:51 PM 28.0 °F 14.3 °F 10.9 °F 49% 30.01 in 10.0 mi WNW 21.9 mph 29.9 mph N/A   Partly Cloudy